| time (UTC) | temp F | wind direction | speed MPH | gust MPH | rain 1hr in | rain 24hr in | rain mn in | humidity % | barometer mb |
| 20260506011005 | 62 | 270 | 1.0 | 3.0 | 0.00 | 0.00 | 0.00 | 69 | 1016.3 |
| 20260506010505 | 62 | 225 | 2.0 | 6.0 | 0.00 | 0.00 | 0.00 | 69 | 1016.4 |
| 20260506010004 | 62 | 225 | 2.0 | 5.0 | 0.00 | 0.00 | 0.00 | 68 | 1016.3 |
| 20260506005505 | 62 | 315 | 2.0 | 4.0 | 0.00 | 0.00 | 0.00 | 69 | 1016.3 |
| 20260506005025 | 62 | 225 | 1.0 | 4.0 | 0.00 | 0.00 | 0.00 | 69 | 1016.2 |
| 20260506004505 | 62 | 225 | 2.0 | 4.0 | 0.00 | 0.00 | 0.00 | 69 | 1016.3 |
| 20260506004004 | 62 | 225 | 1.0 | 6.0 | 0.00 | 0.00 | 0.00 | 69 | 1016.2 |
| 20260506003524 | 62 | 225 | 2.0 | 5.0 | 0.00 | 0.00 | 0.00 | 69 | 1016.1 |
| 20260506003005 | 62 | 270 | 2.0 | 6.0 | 0.00 | 0.00 | 0.00 | 69 | 1016.1 |
| 20260506002525 | 63 | 225 | 2.0 | 4.0 | 0.00 | 0.00 | 0.00 | 69 | 1016.1 |
| 20260506002004 | 63 | 225 | 1.0 | 3.0 | 0.00 | 0.00 | 0.00 | 68 | 1016.1 |
| 20260506001505 | 63 | 225 | 2.0 | 5.0 | 0.00 | 0.00 | 0.00 | 68 | 1016.0 |
| 20260506001004 | 63 | 248 | 2.0 | 5.0 | 0.00 | 0.00 | 0.00 | 68 | 1016.0 |
| 20260506000504 | 63 | 225 | 1.0 | 3.0 | 0.00 | 0.00 | 0.00 | 68 | 1015.9 |
| 20260506000004 | 64 | 338 | 1.0 | 4.0 | 0.00 | 0.00 | 0.00 | 67 | 1015.9 |
| 20260505235525 | 64 | 338 | 1.0 | 3.0 | 0.00 | 0.00 | 0.00 | 67 | 1015.9 |
| 20260505235004 | 64 | 293 | 1.0 | 3.0 | 0.00 | 0.00 | 0.00 | 67 | 1015.9 |
| 20260505234504 | 64 | 248 | 1.0 | 3.0 | 0.00 | 0.00 | 0.00 | 66 | 1015.9 |
| 20260505234024 | 64 | 203 | 1.0 | 4.0 | 0.00 | 0.00 | 0.00 | 66 | 1015.9 |
| 20260505233504 | 64 | 270 | 1.0 | 2.0 | 0.00 | 0.00 | 0.00 | 65 | 1015.9 |
| 20260505233044 | 64 | 225 | 1.0 | 3.0 | 0.00 | 0.00 | 0.00 | 65 | 1015.9 |
| 20260505232504 | 65 | 248 | 1.0 | 3.0 | 0.00 | 0.00 | 0.00 | 65 | 1016.0 |
| 20260505232024 | 65 | 225 | 1.0 | 2.0 | 0.00 | 0.00 | 0.00 | 64 | 1016.0 |
| 20260505231504 | 65 | 225 | 1.0 | 3.0 | 0.00 | 0.00 | 0.00 | 64 | 1015.9 |
| 20260505231004 | 65 | 293 | 1.0 | 3.0 | 0.00 | 0.00 | 0.00 | 64 | 1016.0 |
| 20260505230525 | 65 | 315 | 1.0 | 2.0 | 0.00 | 0.00 | 0.00 | 64 | 1015.9 |
| 20260505230024 | 65 | 315 | 1.0 | 3.0 | 0.00 | 0.00 | 0.00 | 64 | 1016.0 |
| 20260505225504 | 65 | 45 | 1.0 | 2.0 | 0.00 | 0.00 | 0.00 | 64 | 1016.0 |
| 20260505225004 | 65 | 338 | 1.0 | 3.0 | 0.00 | 0.00 | 0.00 | 64 | 1015.9 |
| 20260505224504 | 65 | 293 | 2.0 | 4.0 | 0.00 | 0.00 | 0.00 | 64 | 1015.9 |
| 20260505224004 | 65 | 0.0 | 2.0 | 0.00 | 0.00 | 0.00 | 64 | 1015.9 | |
| 20260505223504 | 64 | 338 | 1.0 | 4.0 | 0.00 | 0.00 | 0.00 | 64 | 1016.0 |
| 20260505223005 | 64 | 338 | 2.0 | 6.0 | 0.00 | 0.00 | 0.00 | 64 | 1016.0 |
| 20260505222504 | 64 | 338 | 2.0 | 4.0 | 0.00 | 0.00 | 0.00 | 65 | 1016.1 |
| 20260505222004 | 64 | 315 | 2.0 | 4.0 | 0.00 | 0.00 | 0.00 | 64 | 1016.2 |
| 20260505221524 | 64 | 338 | 2.0 | 5.0 | 0.00 | 0.00 | 0.00 | 64 | 1016.1 |
| 20260505221005 | 64 | 0 | 1.0 | 4.0 | 0.00 | 0.00 | 0.00 | 65 | 1016.1 |
| 20260505220504 | 64 | 338 | 1.0 | 5.0 | 0.00 | 0.00 | 0.00 | 65 | 1016.2 |
| 20260505220004 | 64 | 338 | 1.0 | 2.0 | 0.00 | 0.00 | 0.00 | 65 | 1016.2 |
| 20260505215504 | 64 | 338 | 1.0 | 4.0 | 0.00 | 0.00 | 0.00 | 65 | 1016.2 |
| 20260505215004 | 64 | 293 | 1.0 | 4.0 | 0.00 | 0.00 | 0.00 | 65 | 1016.3 |
| 20260505214504 | 64 | 315 | 1.0 | 5.0 | 0.00 | 0.00 | 0.00 | 66 | 1016.2 |
| 20260505214004 | 64 | 338 | 1.0 | 5.0 | 0.00 | 0.00 | 0.00 | 66 | 1016.4 |
| 20260505213504 | 63 | 338 | 1.0 | 3.0 | 0.00 | 0.00 | 0.00 | 66 | 1016.4 |
| 20260505213004 | 63 | 338 | 1.0 | 3.0 | 0.00 | 0.00 | 0.00 | 67 | 1016.5 |
| 20260505212524 | 63 | 315 | 2.0 | 3.0 | 0.00 | 0.00 | 0.00 | 66 | 1016.4 |
| 20260505212004 | 63 | 338 | 2.0 | 4.0 | 0.00 | 0.00 | 0.00 | 67 | 1016.4 |
| 20260505211524 | 64 | 338 | 3.0 | 6.0 | 0.00 | 0.00 | 0.00 | 66 | 1016.5 |
| 20260505211004 | 64 | 45 | 2.0 | 5.0 | 0.00 | 0.00 | 0.00 | 65 | 1016.4 |
| 20260505210504 | 65 | 338 | 1.0 | 3.0 | 0.00 | 0.00 | 0.00 | 65 | 1016.3 |
| 20260505210004 | 65 | 45 | 1.0 | 3.0 | 0.00 | 0.00 | 0.00 | 64 | 1016.4 |
| 20260505205504 | 65 | 45 | 1.0 | 3.0 | 0.00 | 0.00 | 0.00 | 63 | 1016.3 |
| 20260505205004 | 65 | 0.0 | 2.0 | 0.00 | 0.00 | 0.00 | 63 | 1016.2 | |
| 20260505204504 | 65 | 338 | 1.0 | 3.0 | 0.00 | 0.00 | 0.00 | 64 | 1016.2 |
| 20260505204004 | 65 | 135 | 1.0 | 2.0 | 0.00 | 0.00 | 0.00 | 65 | 1016.3 |
| 20260505203504 | 64 | 0.0 | 2.0 | 0.00 | 0.00 | 0.00 | 66 | 1016.3 | |
| 20260505203004 | 64 | 45 | 2.0 | 4.0 | 0.00 | 0.00 | 0.00 | 65 | 1016.3 |
| 20260505202503 | 64 | 23 | 2.0 | 4.0 | 0.00 | 0.00 | 0.00 | 64 | 1016.3 |
| 20260505202004 | 65 | 315 | 1.0 | 4.0 | 0.00 | 0.00 | 0.00 | 63 | 1016.5 |
| 20260505201504 | 65 | 315 | 1.0 | 3.0 | 0.00 | 0.00 | 0.00 | 63 | 1016.5 |
| 20260505201004 | 65 | 338 | 1.0 | 3.0 | 0.00 | 0.00 | 0.00 | 62 | 1016.7 |
| 20260505200503 | 65 | 248 | 1.0 | 3.0 | 0.00 | 0.00 | 0.00 | 62 | 1016.7 |
| 20260505200003 | 65 | 225 | 1.0 | 3.0 | 0.00 | 0.00 | 0.00 | 63 | 1016.7 |
| 20260505195504 | 65 | 315 | 1.0 | 3.0 | 0.00 | 0.00 | 0.00 | 65 | 1016.6 |
| 20260505195024 | 64 | 338 | 2.0 | 5.0 | 0.00 | 0.00 | 0.00 | 66 | 1016.7 |
| 20260505194504 | 64 | 315 | 1.0 | 4.0 | 0.00 | 0.00 | 0.00 | 66 | 1016.7 |
| 20260505194003 | 64 | 315 | 2.0 | 4.0 | 0.00 | 0.00 | 0.00 | 67 | 1016.7 |
| 20260505193504 | 63 | 203 | 1.0 | 4.0 | 0.00 | 0.00 | 0.00 | 68 | 1016.8 |
| 20260505193004 | 63 | 315 | 2.0 | 4.0 | 0.00 | 0.00 | 0.00 | 69 | 1016.8 |
| 20260505192504 | 63 | 338 | 1.0 | 3.0 | 0.00 | 0.00 | 0.00 | 70 | 1016.8 |
| 20260505192003 | 63 | 270 | 2.0 | 5.0 | 0.00 | 0.00 | 0.00 | 69 | 1016.8 |
| 20260505191524 | 63 | 293 | 2.0 | 5.0 | 0.00 | 0.00 | 0.00 | 69 | 1016.8 |
| 20260505191003 | 63 | 248 | 2.0 | 4.0 | 0.00 | 0.00 | 0.00 | 69 | 1016.7 |
| 20260505190504 | 63 | 293 | 1.0 | 4.0 | 0.00 | 0.00 | 0.00 | 69 | 1016.8 |
| 20260505190004 | 63 | 270 | 2.0 | 6.0 | 0.00 | 0.00 | 0.00 | 70 | 1016.9 |
| 20260505185503 | 63 | 293 | 2.0 | 7.0 | 0.00 | 0.00 | 0.00 | 70 | 1016.8 |
| 20260505185025 | 63 | 293 | 2.0 | 4.0 | 0.00 | 0.00 | 0.00 | 71 | 1016.7 |
| 20260505184503 | 62 | 270 | 1.0 | 3.0 | 0.00 | 0.00 | 0.00 | 72 | 1016.7 |
| 20260505184004 | 61 | 225 | 2.0 | 5.0 | 0.00 | 0.00 | 0.00 | 73 | 1016.8 |
| 20260505183503 | 61 | 315 | 1.0 | 2.0 | 0.00 | 0.00 | 0.00 | 74 | 1016.9 |
| 20260505183024 | 60 | 315 | 1.0 | 3.0 | 0.00 | 0.00 | 0.00 | 75 | 1016.9 |
| 20260505182504 | 60 | 248 | 1.0 | 4.0 | 0.00 | 0.00 | 0.00 | 75 | 1016.8 |
| 20260505182004 | 60 | 225 | 1.0 | 5.0 | 0.00 | 0.00 | 0.00 | 76 | 1016.9 |
| 20260505181504 | 60 | 315 | 1.0 | 3.0 | 0.00 | 0.00 | 0.00 | 76 | 1016.7 |
| 20260505181024 | 60 | 338 | 2.0 | 5.0 | 0.00 | 0.00 | 0.00 | 76 | 1016.8 |
| 20260505180503 | 59 | 315 | 1.0 | 3.0 | 0.00 | 0.00 | 0.00 | 78 | 1016.7 |
| 20260505180003 | 59 | 315 | 1.0 | 3.0 | 0.00 | 0.00 | 0.00 | 77 | 1016.7 |
| 20260505175524 | 59 | 293 | 2.0 | 3.0 | 0.00 | 0.00 | 0.00 | 78 | 1016.8 |
| 20260505175003 | 58 | 225 | 1.0 | 3.0 | 0.00 | 0.00 | 0.00 | 79 | 1016.7 |
| 20260505174504 | 58 | 248 | 1.0 | 4.0 | 0.00 | 0.00 | 0.00 | 79 | 1016.7 |
| 20260505174024 | 58 | 225 | 1.0 | 3.0 | 0.00 | 0.00 | 0.00 | 80 | 1016.6 |
| 20260505173523 | 58 | 293 | 1.0 | 3.0 | 0.00 | 0.00 | 0.00 | 80 | 1016.6 |
| 20260505173003 | 58 | 338 | 1.0 | 2.0 | 0.00 | 0.00 | 0.00 | 79 | 1016.4 |
| 20260505172504 | 58 | 338 | 2.0 | 5.0 | 0.00 | 0.00 | 0.00 | 79 | 1016.5 |
| 20260505172003 | 58 | 23 | 2.0 | 3.0 | 0.00 | 0.00 | 0.00 | 79 | 1016.4 |
| 20260505171503 | 58 | 45 | 1.0 | 3.0 | 0.00 | 0.00 | 0.00 | 78 | 1016.4 |
| 20260505171004 | 58 | 315 | 1.0 | 3.0 | 0.00 | 0.00 | 0.00 | 78 | 1016.4 |
| 20260505170524 | 58 | 315 | 1.0 | 2.0 | 0.00 | 0.00 | 0.00 | 78 | 1016.4 |
| 20260505170004 | 58 | 315 | 1.0 | 2.0 | 0.00 | 0.00 | 0.00 | 78 | 1016.3 |
| 20260505165503 | 58 | 315 | 1.0 | 2.0 | 0.00 | 0.00 | 0.00 | 78 | 1016.4 |
| 20260505165024 | 58 | 315 | 1.0 | 2.0 | 0.00 | 0.00 | 0.00 | 78 | 1016.3 |
| 20260505164504 | 58 | 293 | 1.0 | 3.0 | 0.00 | 0.00 | 0.00 | 77 | 1016.2 |
| 20260505164003 | 58 | 315 | 1.0 | 4.0 | 0.00 | 0.00 | 0.00 | 78 | 1016.3 |
| 20260505163503 | 58 | 338 | 1.0 | 3.0 | 0.00 | 0.00 | 0.00 | 78 | 1016.2 |
| 20260505163003 | 57 | 0.0 | 2.0 | 0.00 | 0.00 | 0.00 | 78 | 1016.2 | |
| 20260505162503 | 57 | 338 | 1.0 | 2.0 | 0.00 | 0.00 | 0.00 | 78 | 1016.2 |
| 20260505162004 | 57 | 315 | 1.0 | 2.0 | 0.00 | 0.00 | 0.00 | 78 | 1016.1 |
| 20260505161503 | 57 | 315 | 1.0 | 2.0 | 0.00 | 0.00 | 0.00 | 78 | 1016.2 |
| 20260505161003 | 57 | 248 | 1.0 | 2.0 | 0.00 | 0.00 | 0.00 | 78 | 1016.1 |
| 20260505160503 | 56 | 0.0 | 2.0 | 0.00 | 0.00 | 0.00 | 79 | 1016.2 | |
| 20260505153003 | 55 | 0.0 | 2.0 | 0.00 | 0.00 | 0.00 | 84 | 1016.0 | |
| 20260505152503 | 55 | 203 | 1.0 | 2.0 | 0.00 | 0.00 | 0.00 | 84 | 1015.9 |
| 20260505152003 | 55 | 135 | 1.0 | 2.0 | 0.00 | 0.00 | 0.00 | 85 | 1015.9 |
| 20260505151503 | 55 | 203 | 1.0 | 2.0 | 0.00 | 0.00 | 0.00 | 85 | 1015.8 |
| 20260505151003 | 55 | 180 | 1.0 | 2.0 | 0.00 | 0.00 | 0.00 | 86 | 1015.8 |
| 20260505150503 | 54 | 180 | 1.0 | 2.0 | 0.00 | 0.00 | 0.00 | 86 | 1015.8 |
| 20260505140503 | 53 | 0.0 | 2.0 | 0.00 | 0.00 | 0.00 | 88 | 1015.6 | |
| 20260505125005 | 53 | 0.0 | 1.0 | 0.00 | 0.00 | 0.00 | 87 | 1015.2 | |
| 20260505124505 | 53 | 0.0 | 1.0 | 0.00 | 0.00 | 0.00 | 87 | 1015.3 | |
| 20260505124005 | 53 | 0.0 | 1.0 | 0.00 | 0.00 | 0.00 | 86 | 1015.3 | |
| 20260505123505 | 53 | 0.0 | 1.0 | 0.00 | 0.00 | 0.00 | 86 | 1015.2 | |
| 20260505123005 | 53 | 0.0 | 1.0 | 0.00 | 0.00 | 0.00 | 86 | 1015.5 | |
| 20260505122505 | 53 | 0.0 | 1.0 | 0.00 | 0.00 | 0.00 | 86 | 1015.4 | |
| 20260505122005 | 53 | 0.0 | 1.0 | 0.00 | 0.00 | 0.00 | 86 | 1015.2 | |
| 20260505121505 | 53 | 0.0 | 1.0 | 0.00 | 0.00 | 0.00 | 86 | 1015.4 | |
| 20260505121025 | 53 | 0.0 | 1.0 | 0.00 | 0.00 | 0.00 | 85 | 1015.3 | |
| 20260505120505 | 53 | 0.0 | 1.0 | 0.00 | 0.00 | 0.00 | 85 | 1015.1 | |
| 20260505120025 | 53 | 0.0 | 1.0 | 0.00 | 0.00 | 0.00 | 85 | 1015.1 | |
| 20260505115505 | 53 | 0.0 | 1.0 | 0.00 | 0.00 | 0.00 | 85 | 1015.2 | |
| 20260505115005 | 53 | 0.0 | 1.0 | 0.00 | 0.00 | 0.00 | 84 | 1015.3 | |
| 20260505114525 | 53 | 0.0 | 1.0 | 0.00 | 0.00 | 0.00 | 84 | 1015.3 | |
| 20260505114005 | 53 | 0.0 | 1.0 | 0.00 | 0.00 | 0.00 | 84 | 1015.4 | |
| 20260505113506 | 53 | 0.0 | 1.0 | 0.00 | 0.00 | 0.00 | 84 | 1015.4 | |
| 20260505113005 | 53 | 0.0 | 1.0 | 0.00 | 0.00 | 0.00 | 84 | 1015.3 | |
| 20260505112524 | 53 | 0.0 | 0.0 | 0.00 | 0.00 | 0.00 | 83 | 1015.4 | |
| 20260505112005 | 53 | 0.0 | 1.0 | 0.00 | 0.00 | 0.00 | 83 | 1015.3 | |
| 20260505111505 | 53 | 0.0 | 1.0 | 0.00 | 0.00 | 0.00 | 83 | 1015.4 | |
| 20260505111005 | 53 | 0.0 | 0.0 | 0.00 | 0.00 | 0.00 | 83 | 1015.4 | |
| 20260505110525 | 53 | 0.0 | 1.0 | 0.00 | 0.00 | 0.00 | 83 | 1015.4 | |
| 20260505102005 | 54 | 0.0 | 0.0 | 0.00 | 0.00 | 0.00 | 81 | 1015.3 | |
| 20260505101524 | 54 | 0.0 | 1.0 | 0.00 | 0.00 | 0.00 | 81 | 1015.3 | |
| 20260505101005 | 54 | 0.0 | 1.0 | 0.00 | 0.00 | 0.00 | 81 | 1015.4 | |
| 20260505100504 | 54 | 0.0 | 1.0 | 0.00 | 0.00 | 0.00 | 80 | 1015.6 | |
| 20260505100004 | 54 | 0.0 | 1.0 | 0.00 | 0.00 | 0.00 | 80 | 1015.5 | |
| 20260505095504 | 54 | 0.0 | 1.0 | 0.00 | 0.00 | 0.00 | 80 | 1015.6 | |
| 20260505095005 | 54 | 0.0 | 1.0 | 0.00 | 0.00 | 0.00 | 80 | 1015.5 | |
| 20260505094524 | 54 | 0.0 | 1.0 | 0.00 | 0.00 | 0.00 | 79 | 1015.5 | |
| 20260505094004 | 54 | 0.0 | 1.0 | 0.00 | 0.00 | 0.00 | 79 | 1015.4 | |
| 20260505093504 | 54 | 0.0 | 1.0 | 0.00 | 0.00 | 0.00 | 78 | 1015.6 | |
| 20260505093005 | 54 | 0.0 | 1.0 | 0.00 | 0.00 | 0.00 | 78 | 1015.7 | |
| 20260505092544 | 54 | 0.0 | 1.0 | 0.00 | 0.00 | 0.00 | 77 | 1015.6 | |
| 20260505092005 | 54 | 0.0 | 1.0 | 0.00 | 0.00 | 0.00 | 77 | 1015.5 | |
| 20260505091505 | 54 | 315 | 1.0 | 2.0 | 0.00 | 0.00 | 0.00 | 77 | 1015.6 |
| 20260505091025 | 54 | 315 | 1.0 | 3.0 | 0.00 | 0.00 | 0.00 | 76 | 1015.7 |
| 20260505090505 | 54 | 338 | 1.0 | 2.0 | 0.00 | 0.00 | 0.00 | 76 | 1015.8 |
| 20260505090005 | 54 | 0.0 | 2.0 | 0.00 | 0.00 | 0.00 | 76 | 1015.8 | |
| 20260505085504 | 54 | 315 | 1.0 | 3.0 | 0.00 | 0.00 | 0.00 | 76 | 1015.9 |
| 20260505085005 | 54 | 315 | 1.0 | 2.0 | 0.00 | 0.00 | 0.00 | 76 | 1015.8 |
| 20260505084505 | 54 | 0.0 | 2.0 | 0.00 | 0.00 | 0.00 | 76 | 1015.9 | |
| 20260505084024 | 54 | 315 | 1.0 | 2.0 | 0.00 | 0.00 | 0.00 | 76 | 1016.0 |
| 20260505083504 | 54 | 315 | 1.0 | 2.0 | 0.00 | 0.00 | 0.00 | 76 | 1016.1 |
| 20260505083005 | 55 | 315 | 1.0 | 2.0 | 0.00 | 0.00 | 0.00 | 75 | 1016.1 |
| 20260505082504 | 55 | 293 | 1.0 | 2.0 | 0.00 | 0.00 | 0.00 | 75 | 1016.2 |
| 20260505082004 | 55 | 315 | 1.0 | 3.0 | 0.00 | 0.00 | 0.00 | 75 | 1016.1 |
| 20260505081504 | 55 | 315 | 1.0 | 3.0 | 0.00 | 0.00 | 0.00 | 74 | 1016.2 |
| 20260505081004 | 55 | 315 | 1.0 | 4.0 | 0.00 | 0.00 | 0.00 | 74 | 1016.1 |
| 20260505080504 | 55 | 315 | 1.0 | 3.0 | 0.00 | 0.00 | 0.00 | 73 | 1016.2 |
| 20260505080024 | 55 | 315 | 1.0 | 3.0 | 0.00 | 0.00 | 0.00 | 72 | 1016.3 |
| 20260505075505 | 55 | 315 | 1.0 | 3.0 | 0.00 | 0.00 | 0.00 | 72 | 1016.3 |
| 20260505075005 | 55 | 315 | 1.0 | 4.0 | 0.00 | 0.00 | 0.00 | 72 | 1016.3 |
| 20260505074524 | 55 | 315 | 2.0 | 5.0 | 0.00 | 0.00 | 0.00 | 72 | 1016.3 |
| 20260505074004 | 55 | 293 | 2.0 | 6.0 | 0.00 | 0.00 | 0.00 | 72 | 1016.3 |
| 20260505073524 | 55 | 315 | 2.0 | 4.0 | 0.00 | 0.00 | 0.00 | 72 | 1016.3 |
| 20260505073024 | 55 | 315 | 2.0 | 3.0 | 0.00 | 0.00 | 0.00 | 72 | 1016.2 |
| 20260505072504 | 55 | 338 | 2.0 | 5.0 | 0.00 | 0.00 | 0.00 | 72 | 1016.3 |
| 20260505072004 | 55 | 338 | 2.0 | 4.0 | 0.00 | 0.00 | 0.00 | 72 | 1016.3 |
| 20260505071504 | 55 | 293 | 2.0 | 6.0 | 0.00 | 0.00 | 0.00 | 72 | 1016.2 |
| 20260505071004 | 55 | 338 | 1.0 | 3.0 | 0.00 | 0.00 | 0.00 | 72 | 1016.1 |
| 20260505070505 | 55 | 315 | 2.0 | 5.0 | 0.00 | 0.00 | 0.00 | 72 | 1016.0 |
| 20260505070046 | 55 | 315 | 2.0 | 9.0 | 0.00 | 0.00 | 0.00 | 73 | 1016.0 |
| 20260505065504 | 55 | 315 | 2.0 | 5.0 | 0.00 | 0.00 | 0.00 | 73 | 1015.9 |
| 20260505065004 | 55 | 338 | 2.0 | 7.0 | 0.00 | 0.00 | 0.00 | 73 | 1015.9 |
| 20260505064504 | 55 | 338 | 1.0 | 4.0 | 0.00 | 0.00 | 0.00 | 74 | 1015.8 |
| 20260505064024 | 55 | 315 | 1.0 | 5.0 | 0.00 | 0.00 | 0.00 | 74 | 1015.9 |
| 20260505063503 | 55 | 315 | 1.0 | 3.0 | 0.00 | 0.00 | 0.00 | 75 | 1015.9 |
| 20260505063004 | 55 | 315 | 1.0 | 4.0 | 0.00 | 0.00 | 0.00 | 75 | 1015.9 |
| 20260505062525 | 55 | 315 | 1.0 | 3.0 | 0.00 | 0.00 | 0.00 | 75 | 1015.9 |
| 20260505062004 | 55 | 315 | 2.0 | 4.0 | 0.00 | 0.00 | 0.00 | 76 | 1015.8 |
| 20260505061503 | 56 | 270 | 1.0 | 3.0 | 0.00 | 0.00 | 0.00 | 76 | 1015.7 |
| 20260505061024 | 56 | 338 | 1.0 | 4.0 | 0.00 | 0.00 | 0.00 | 76 | 1015.7 |
| 20260505060504 | 56 | 270 | 1.0 | 4.0 | 0.00 | 0.00 | 0.00 | 76 | 1015.7 |
| 20260505060004 | 56 | 315 | 1.0 | 3.0 | 0.00 | 0.00 | 0.00 | 75 | 1015.6 |
| 20260505055503 | 56 | 315 | 1.0 | 4.0 | 0.00 | 0.00 | 0.00 | 75 | 1015.7 |
| 20260505055004 | 56 | 315 | 2.0 | 4.0 | 0.00 | 0.00 | 0.00 | 75 | 1015.8 |
| 20260505054504 | 56 | 315 | 2.0 | 5.0 | 0.00 | 0.00 | 0.00 | 76 | 1015.9 |
| 20260505054003 | 56 | 315 | 1.0 | 5.0 | 0.00 | 0.00 | 0.00 | 76 | 1015.8 |
| 20260505053504 | 56 | 315 | 1.0 | 3.0 | 0.00 | 0.00 | 0.00 | 76 | 1015.9 |
| 20260505053004 | 56 | 315 | 2.0 | 5.0 | 0.00 | 0.00 | 0.00 | 76 | 1016.0 |
| 20260505052504 | 56 | 338 | 2.0 | 4.0 | 0.00 | 0.00 | 0.00 | 76 | 1016.0 |
| 20260505052004 | 56 | 0 | 2.0 | 8.0 | 0.00 | 0.00 | 0.00 | 77 | 1016.2 |
| 20260505051504 | 57 | 338 | 2.0 | 6.0 | 0.00 | 0.00 | 0.00 | 77 | 1016.1 |
| 20260505051003 | 57 | 338 | 2.0 | 6.0 | 0.00 | 0.00 | 0.00 | 78 | 1016.1 |
| 20260505050503 | 57 | 338 | 3.0 | 7.0 | 0.00 | 0.00 | 0.00 | 78 | 1016.1 |
| 20260505041503 | 57 | 338 | 1.0 | 3.0 | 0.00 | 0.00 | 0.00 | 76 | 1015.7 |
| 20260505041004 | 57 | 338 | 1.0 | 4.0 | 0.00 | 0.00 | 0.00 | 76 | 1015.7 |
| 20260505040504 | 57 | 338 | 1.0 | 3.0 | 0.00 | 0.00 | 0.00 | 75 | 1015.6 |
| 20260505040004 | 57 | 315 | 1.0 | 3.0 | 0.00 | 0.00 | 0.00 | 75 | 1015.6 |
| 20260505035503 | 57 | 338 | 1.0 | 3.0 | 0.00 | 0.00 | 0.00 | 75 | 1015.6 |
| 20260505035004 | 57 | 315 | 1.0 | 4.0 | 0.00 | 0.00 | 0.00 | 75 | 1015.5 |
| 20260505034523 | 58 | 315 | 1.0 | 3.0 | 0.00 | 0.00 | 0.00 | 74 | 1015.5 |
| 20260505034004 | 58 | 338 | 1.0 | 4.0 | 0.00 | 0.00 | 0.00 | 74 | 1015.5 |
| 20260505033504 | 58 | 315 | 1.0 | 3.0 | 0.00 | 0.00 | 0.00 | 73 | 1015.5 |
| 20260505033003 | 58 | 315 | 1.0 | 4.0 | 0.00 | 0.00 | 0.00 | 73 | 1015.4 |
| 20260505032503 | 58 | 315 | 1.0 | 4.0 | 0.00 | 0.00 | 0.00 | 72 | 1015.1 |
| 20260505032044 | 58 | 338 | 2.0 | 5.0 | 0.00 | 0.00 | 0.00 | 72 | 1015.0 |
| 20260505031504 | 59 | 315 | 2.0 | 5.0 | 0.00 | 0.00 | 0.00 | 71 | 1015.2 |
| 20260505031003 | 59 | 338 | 1.0 | 5.0 | 0.00 | 0.00 | 0.00 | 70 | 1015.1 |
| 20260505030503 | 59 | 315 | 1.0 | 3.0 | 0.00 | 0.00 | 0.00 | 70 | 1015.1 |
| 20260505030004 | 59 | 315 | 1.0 | 3.0 | 0.00 | 0.00 | 0.00 | 70 | 1015.1 |
| 20260505025503 | 59 | 338 | 1.0 | 5.0 | 0.00 | 0.00 | 0.00 | 69 | 1015.1 |
| 20260505025003 | 59 | 315 | 1.0 | 4.0 | 0.00 | 0.00 | 0.00 | 69 | 1015.0 |
| 20260505024523 | 60 | 315 | 1.0 | 3.0 | 0.00 | 0.00 | 0.00 | 69 | 1015.0 |
| 20260505024003 | 60 | 315 | 1.0 | 3.0 | 0.00 | 0.00 | 0.00 | 68 | 1015.1 |
| 20260505023523 | 60 | 315 | 2.0 | 4.0 | 0.00 | 0.00 | 0.00 | 68 | 1015.0 |
| 20260505023003 | 60 | 315 | 1.0 | 4.0 | 0.00 | 0.00 | 0.00 | 68 | 1015.0 |
| 20260505022503 | 60 | 315 | 2.0 | 4.0 | 0.00 | 0.00 | 0.00 | 67 | 1014.9 |
| 20260505022003 | 60 | 338 | 2.0 | 5.0 | 0.00 | 0.00 | 0.00 | 67 | 1014.8 |
| 20260505021503 | 60 | 338 | 1.0 | 4.0 | 0.00 | 0.00 | 0.00 | 67 | 1014.9 |
| 20260505021008 | 60 | 338 | 1.0 | 5.0 | 0.00 | 0.00 | 0.00 | 67 | 1015.0 |
| 20260505020503 | 60 | 338 | 1.0 | 3.0 | 0.00 | 0.00 | 0.00 | 66 | 1015.0 |
| 20260505020003 | 60 | 338 | 1.0 | 4.0 | 0.00 | 0.00 | 0.00 | 66 | 1014.9 |
| 20260505015523 | 60 | 338 | 2.0 | 6.0 | 0.00 | 0.00 | 0.00 | 65 | 1014.9 |
| 20260505015003 | 61 | 315 | 2.0 | 6.0 | 0.00 | 0.00 | 0.00 | 65 | 1014.9 |
| 20260505014523 | 61 | 315 | 2.0 | 5.0 | 0.00 | 0.00 | 0.00 | 64 | 1015.0 |
| 20260505014023 | 61 | 315 | 2.0 | 5.0 | 0.00 | 0.00 | 0.00 | 63 | 1015.1 |
| 20260505013523 | 61 | 338 | 2.0 | 5.0 | 0.00 | 0.00 | 0.00 | 62 | 1015.0 |
| 20260505013003 | 61 | 315 | 2.0 | 7.0 | 0.00 | 0.00 | 0.00 | 62 | 1015.1 |
| 20260505012503 | 61 | 315 | 2.0 | 5.0 | 0.00 | 0.00 | 0.00 | 61 | 1015.1 |
| 20260505012003 | 62 | 338 | 1.0 | 4.0 | 0.00 | 0.00 | 0.00 | 61 | 1015.1 |
| 20260505011503 | 61 | 338 | 2.0 | 5.0 | 0.00 | 0.00 | 0.00 | 60 | 1015.1 |